Location: Argonnex
(45.9500°N, 6.1333°E)
Time: 10:13:05
(UTC+00:00)

Cosmos 2266 Rocket - Pass Details

Date: 28 September 2023
Orbit: 933 x 1008 km, 82.9° (Epoch: 10 December)

Event Time Altitude Azimuth Distance (km) Brightness Sun altitude
Exits shadow 04:57:11 - 264° (W) 2,969 5.8 -6.4°
Reaches altitude 10° 04:58:21 10° 273° (W) 2,757 5.7 -6.2°
Maximum altitude 05:01:18 13° 301° (WNW) 2,523 5.7 -5.7°
Drops below altitude 10° 05:04:17 10° 329° (NNW) 2,783 6.1 -5.2°
Sets 05:08:29 0° 356° (N) 3,746 7.0 -4.5°
